McComb, MS

6:35 AM CDT on August 21, 2017 (GMT -0500)
McComb-Pike County-Lewis

Weather History for KMCB - May, 2014

Change the Weather History Date:

Monday, May 26, 2014

  Actual Average Record
Temperature  
Mean Temperature 76 °F -  
Max Temperature 87 °F 86 °F 95 °F (1964)
Min Temperature 64 °F 63 °F 41 °F (1979)
Cooling Degree Days 10    
Growing Degree Days 26 (Base 50)    
Moisture  
Dew Point 64 °F    
Average Humidity 70    
Maximum Humidity 93    
Minimum Humidity 41    
Precipitation  
Precipitation 0.00 in - - ()
Sea Level Pressure  
Sea Level Pressure 30.09 in    
Wind  
Wind Speed 3 mph (SSE)    
Max Wind Speed 13 mph    
Max Gust Speed 20 mph    
Visibility 8 miles    
Events      
Averages and records for this station are not official NWS values.
T = Trace of Precipitation, MM = Missing Value Source: NWS Daily Summary

Daily Weather History Graph

Daily Weather History Graph

Search for Another Location

Airport or City:

Trip Planner

Search our weather history database for the weather conditions in past years. The results will help you decide how hot, cold, wet, or windy it might be!

Date:

Astronomy

May. 26, 2014 Rise Set
Actual Time 6:00 AM CDT 7:57 PM CDT
Civil Twilight 5:33 AM CDT 8:24 PM CDT
Nautical Twilight 5:00 AM CDT 8:57 PM CDT
Astronomical Twilight 4:25 AM CDT 9:33 PM CDT
Moon 4:33 AM CDT (5/26) 6:08 PM CDT (5/26)
Length of Visible Light 14h 51m
Length of Day
13h 57m
Waning Crescent, 5% of the Moon is Illuminated
May 26
Waning Crescent
May 28
New
Jun 5
First Quarter
Jun 12
Full
Jun 19
Last Quarter

Hourly Weather History & Observations

Time (CDT) Temp. Heat Index Dew Point Humidity Pressure Visibility Wind Dir Wind Speed Gust Speed Precip Events Conditions
12:53 AM 69.1 °F - 64.0 °F 84% 30.07 in 8.0 mi Calm Calm - N/A   Clear
1:53 AM 68.0 °F - 64.0 °F 87% 30.06 in 8.0 mi Calm Calm - N/A   Clear
2:53 AM 64.9 °F - 62.1 °F 90% 30.07 in 6.0 mi Calm Calm - N/A   Clear
3:53 AM 64.9 °F - 62.1 °F 90% 30.08 in 5.0 mi Calm Calm - N/A   Clear
4:53 AM 64.9 °F - 62.1 °F 90% 30.09 in 6.0 mi Calm Calm - N/A   Clear
5:53 AM 64.0 °F - 62.1 °F 93% 30.11 in 6.0 mi Calm Calm - N/A   Clear
6:53 AM 64.0 °F - 62.1 °F 93% 30.12 in 5.0 mi Calm Calm - N/A   Clear
7:53 AM 70.0 °F - 66.9 °F 90% 30.13 in 4.0 mi Calm Calm - N/A   Clear
8:53 AM 75.9 °F - 68.0 °F 76% 30.14 in 8.0 mi Calm Calm - N/A   Clear
9:53 AM 79.0 °F - 64.9 °F 62% 30.14 in 10.0 mi South 9.2 mph - N/A   Partly Cloudy
10:53 AM 82.9 °F 84.6 °F 64.9 °F 54% 30.13 in 4.0 mi SSE 10.4 mph - N/A   Haze
11:53 AM 82.9 °F 84.4 °F 64.0 °F 53% 30.13 in 10.0 mi SSE 10.4 mph 19.6 mph N/A   Scattered Clouds
12:53 PM 84.9 °F 86.1 °F 64.0 °F 49% 30.11 in 10.0 mi South 10.4 mph - N/A   Scattered Clouds
1:53 PM 86.0 °F 87.3 °F 64.0 °F 48% 30.09 in 10.0 mi SSE 12.7 mph - N/A   Partly Cloudy
2:53 PM 87.1 °F 87.8 °F 63.0 °F 44% 30.09 in 10.0 mi SSE 12.7 mph 18.4 mph N/A   Partly Cloudy
3:53 PM 87.1 °F 87.0 °F 61.0 °F 41% 30.08 in 10.0 mi South 10.4 mph - N/A   Clear
4:53 PM 84.9 °F 85.9 °F 63.0 °F 48% 30.06 in 10.0 mi South 11.5 mph - N/A   Clear
5:53 PM 84.0 °F 85.4 °F 64.0 °F 51% 30.05 in 10.0 mi South 8.1 mph - N/A   Clear
6:53 PM 82.0 °F 83.8 °F 64.9 °F 56% 30.06 in 9.0 mi South 6.9 mph - N/A   Clear
7:53 PM 77.0 °F - 64.9 °F 66% 30.07 in 8.0 mi SSE 3.5 mph - N/A   Clear
8:53 PM 73.9 °F - 66.0 °F 76% 30.07 in 9.0 mi SE 4.6 mph - N/A   Clear
9:53 PM 75.0 °F - 64.9 °F 71% 30.09 in 9.0 mi SSE 3.5 mph - N/A   Clear
10:53 PM 72.0 °F - 64.9 °F 78% 30.10 in 8.0 mi SE 5.8 mph - N/A   Clear
11:53 PM 72.0 °F - 66.0 °F 81% 30.09 in 8.0 mi SSE 6.9 mph - N/A   Clear